Perry, FL

11:51 AM EDT on July 22, 2017 (GMT -0400)
Perry

Weather History for K40J - December, 2012

Change the Weather History Date:

Monday, December 31, 2012

  Actual Average (KVLD) Record (KVLD)
Temperature  
Mean Temperature 50 °F -  
Max Temperature 69 °F 59 °F 79 °F (2015)
Min Temperature 30 °F 36 °F 21 °F (2000)
Degree Days  
Heating Degree Days 16    
Moisture  
Dew Point 40 °F    
Average Humidity 74    
Maximum Humidity 93    
Minimum Humidity 49    
Precipitation  
Precipitation 0.02 in - - ()
Sea Level Pressure  
Sea Level Pressure 30.31 in    
Wind  
Wind Speed 2 mph (SSE)    
Max Wind Speed 13 mph    
Max Gust Speed 18 mph    
Averages and records for this station are not official NWS values.
T = Trace of Precipitation, MM = Missing Value Source: NWS Daily Summary

Daily Weather History Graph

Daily Weather History Graph

Search for Another Location

Airport or City:

Trip Planner

Search our weather history database for the weather conditions in past years. The results will help you decide how hot, cold, wet, or windy it might be!

Date:

Astronomy

Dec. 31, 2012 Rise Set
Actual Time 7:30 AM EST 5:45 PM EST
Civil Twilight 7:03 AM EST 6:11 PM EST
Nautical Twilight 6:34 AM EST 6:41 PM EST
Astronomical Twilight 6:04 AM EST 7:10 PM EST
Moon 8:59 PM EST (12/31) 9:25 AM EST (12/31)
Length of Visible Light 11h 07m
Length of Day
10h 14m
Waning Gibbous, 90% of the Moon is Illuminated
Dec 31
Waning Gibbous
Jan 4
Last Quarter
Jan 11
New
Jan 18
First Quarter
Jan 26
Full

Hourly Weather History & Observations

Time (EST) Temp. Windchill Dew Point Humidity Pressure Visibility Wind Dir Wind Speed Gust Speed Precip Events Conditions
12:53 AM 30.9 °F - 27.0 °F 85% 30.40 in - Calm Calm - N/A   Unknown
1:53 AM 30.0 °F - 27.0 °F 88% 30.39 in - Calm Calm - N/A   Unknown
2:53 AM 32.0 °F - 28.9 °F 88% 30.38 in - Calm Calm - N/A   Unknown
3:53 AM 30.9 °F - 28.0 °F 89% 30.37 in - Calm Calm - N/A   Unknown
4:53 AM 33.1 °F - 28.9 °F 85% 30.36 in - Calm Calm - N/A   Unknown
5:53 AM 33.1 °F - 28.9 °F 85% 30.35 in - Calm Calm - N/A   Unknown
6:53 AM 35.1 °F - 30.0 °F 82% 30.35 in - Calm Calm - N/A   Unknown
7:53 AM 37.0 °F 33.3 °F 30.0 °F 76% 30.37 in - NE 4.6 mph - N/A   Unknown
8:53 AM 43.0 °F 40.3 °F 33.1 °F 68% 30.40 in - Variable 4.6 mph - N/A   Unknown
9:53 AM 50.0 °F - 37.0 °F 61% 30.37 in - Variable 4.6 mph - N/A   Unknown
10:53 AM 57.0 °F - 42.1 °F 57% 30.37 in - ENE 5.8 mph - N/A   Unknown
11:53 AM 63.0 °F - 45.0 °F 52% 30.34 in - Variable 5.8 mph - 0.01 in   Unknown
12:53 PM 66.9 °F - 46.9 °F 49% 30.29 in - SE 10.4 mph - N/A   Unknown
1:53 PM 69.1 °F - 48.9 °F 49% 30.25 in - South 12.7 mph 18.4 mph 0.01 in   Unknown
2:53 PM 69.1 °F - 50.0 °F 51% 30.24 in - SSE 8.1 mph - N/A   Unknown
3:53 PM 68.0 °F - 50.0 °F 52% 30.24 in - SW 12.7 mph - N/A   Unknown
4:53 PM 66.0 °F - 50.0 °F 56% 30.25 in - SSW 6.9 mph - N/A   Unknown
5:53 PM 61.0 °F - 50.0 °F 67% 30.23 in - Calm Calm - N/A   Unknown
6:53 PM 54.0 °F - 48.0 °F 80% 30.24 in - Calm Calm - N/A   Unknown
7:53 PM 51.1 °F - 46.9 °F 86% 30.24 in - Calm Calm - N/A   Unknown
8:53 PM 52.0 °F - 48.9 °F 89% 30.24 in - Calm Calm - N/A   Unknown
9:53 PM 50.0 °F - 46.9 °F 89% 30.25 in - Calm Calm - N/A   Unknown
10:53 PM 48.0 °F - 46.0 °F 93% 30.25 in - Calm Calm - N/A   Unknown
11:53 PM 48.0 °F - 45.0 °F 89% 30.24 in - Calm Calm - N/A   Unknown